Погода в Косте

Россия / Республика Северная Осетия — Алания     43°11′39″N   44°27′23″E
темп.,
°C
ветер,
м/с
пор.,
м/с
влажн.,
%
обл.,
%
осадки,
мм/ч
давл.,
гПа
погр.,
м
5 марта, пт
пт500:000вюв11690 0.0 102422
03:00−1юв11690 0.0 102321
06:00−1вюв11630 0.0 102121
09:00+3св11450 0.0 1020260
12:00+7ююв11360 0.0 1018558
15:00+9юз01320 0.0 1017661
18:00+6з11520 0.0 102024
21:00+4юв11620 0.0 102122
6 марта, сб
сб600:00+3юв11630 0.0 102122
03:00+2вюв11630 0.0 102122
06:00+2юв225715 0.0 102122
09:00+8юв113625 0.0 1019100
12:00+14всв22220 0.0 1016426
15:00+16в44211 0.0 1014915
18:00+11в233574 0.0 101535
21:00+7юз225087 0.0 101536
7 марта, вс
вс700:00+6з2246100 0.0 101526
03:00+5сз2253100 0.0 101736
06:000ссз6109278 0.4 1021684
09:000ссз468089 1.9 1022694
12:00+1ссз4558100 0.3 10221100
15:00+2ссз334098 0.4 10221339
18:000с224743 0.0 102367
21:00−1в225640 0.0 102541
8 марта, пн
пн800:00−1св12600 0.0 102448
03:00−2с11620 0.0 102437
06:00−3сз11660 0.0 102376
09:00−1всв12530 0.0 1022664
12:00+3в34430 0.0 10191140
15:00+4в33420 0.0 10161199
18:00+2всв245368 0.0 1017116
21:00+1в236478 0.0 101877
9 марта, вт
вт900:000всв227045 0.0 101862
03:00−1всв017572 0.0 101822
06:00−1зсз1175100 0.0 101932
09:00+2сз116393 0.0 1018451
12:00+5св114912 0.0 10161131
15:00+6в224440 0.0 10151419
18:00+5всв225099 0.0 1017113
21:00+3с345999 0.0 1021258